Location: Asheville, NC
(35.6000°N, 82.5500°W)
Time: 08:53:31
(UTC-05:00)

AO-85 - Pass Details

Date: 15 February 2018
Orbit: 507 x 779 km, 64.8° (Epoch: 15 February)

Event Time Altitude Azimuth Distance (km) Brightness Sun altitude
Exits shadow 06:50:19 - 274° (W) 2,038 ? -6.1°
Reaches altitude 10° 06:51:17 10° 285° (WNW) 1,832 ? -5.9°
Maximum altitude 06:53:20 13° 315° (NW) 1,657 ? -5.5°
Drops below altitude 10° 06:55:28 10° 345° (NNW) 1,909 ? -5.1°
Sets 06:58:55 0° 12° (NNE) 2,884 ? -4.4°
